Other Public Products
Issued by NWS Grand Forks, ND

Home | Current Version | Previous Version | Graphics & Text | Print | Product List | Glossary On
Versions: 1 2 3 4 5 6 7 8 9 10 11 12 13 14 15 16 17 18 19 20 21 22 23 24 25 26 27 28 29 30 31 32 33 34 35 36 37 38 39 40 41 42 43 44 45 46 47 48 49 50
000
FPUS83 KFGF 031731
OPUFGF
PRAIRIE TO PINES WEATHER ROUNDUP
NATIONAL WEATHER SERVICE EASTERN NORTH DAKOTA/GRAND FORKS ND
1100 AM CST SAT DEC 03 2016

 **SATELLITE DATA USED TO AUGMENT SKY COVER AT AUTOMATED STATIONS**
 *****  WEATHER ACROSS EASTERN NORTH DAKOTA  *****

CITY           SKY/WX    TMP DP  RH WIND       PRES   REMARKS
GRAND FORKS    CLOUDY    30  23  75 S17       30.13F WCI  18
GRAND FORKS AF CLOUDY    29  23  80 S14       30.12F WCI  18
GRAND CITY NWS   N/A     28 N/A N/A S16         N/A  WCI  17
BUXTON           N/A     43  40  88 S18         N/A
DEVILS LAKE    CLOUDY    28  26  92 S17       30.02F WCI  16
FARGO          CLOUDY    29  20  69 SE13      30.16F WCI  19
WAHPETON ARPT  MOSUNNY   30  23  74 SE14      30.17F WCI  20
$$

 *****  WEATHER ACROSS CENTRAL AND WESTERN NORTH DAKOTA  *****

CITY           SKY/WX    TMP DP  RH WIND       PRES   REMARKS
JAMESTOWN      CLOUDY    29  25  85 S20       30.03F WCI  16
BISMARCK       PTSUNNY   24  23  96 SE13      29.95F WCI  12
MINOT          SUNNY     26  22  84 S16G26    29.88S WCI  14
MINOT AFB      SUNNY     24  20  84 S17       29.86F WCI  11
GARRISON         N/A     25  23  92 S20       29.89F WCI  11
WILLISTON      CLOUDY    25  20  81 S7        29.82F WCI  17
DICKINSON      SUNNY     19  17  92 S7        29.83S WCI  10
HETTINGER      SUNNY     20  17  88 S3        29.89F
$$

 *****  OTHER OBSERVATIONS NORTHEAST NORTH DAKOTA  *****

CITY           SKY/WX    TMP DP  RH WIND       PRES   REMARKS
WALHALLA         N/A     28  28 100 S18G25    30.06F WCI  16
LANGDON        CLOUDY    27  27 100 S21       30.01F WCI  13
CAVALIER         N/A     28  27  93 S21G28    30.08F WCI  15
GRAFTON        CLOUDY    28  25  86 S22G30    30.13F WCI  15
CANDO          CLOUDY    28  28 100 S21       30.00F WCI  15
FORT TOTTEN      N/A     27  27 100 S15       29.95S WCI  15
ROLLA          CLOUDY    27  27 100 S22G29    29.94F FOG     WCI  12
RUGBY            N/A     28  27  93 S18G25    29.92F WCI  16
 ***** THE ABOVE OBSERVATIONS ARE NON NWS ARE NOT QUALITY
        CONTROLLED AND MAY MIS-REPORT RAIN FOR SNOW...
$$

 *****  OTHER OBSERVATIONS SOUTHEAST NORTH DAKOTA *****

CITY           SKY/WX    TMP DP  RH WIND       PRES   REMARKS
COOPERSTOWN    CLOUDY    28  27  93 S17G23    30.06F WCI  16
VALLEY CITY    MIX PCPN  28  28 100 S16       30.09F WCI  17
OAKES          NOT AVBL
GWINNER          N/A     32  28  86 SE16      30.11F WCI  21
SHEYENNE NWR     N/A     30  23  75 SE12      29.95S WCI  20
BUFFALO          N/A     28  22  79 NE14        N/A  WCI  17
WYNDMERE         N/A     30  25  80 SE13        N/A  WCI  20
 ***** THE ABOVE OBSERVATIONS ARE NON NWS ARE NOT QUALITY
       CONTROLLED AND MAY MIS-REPORT RAIN FOR SNOW...
$$

  *****  WEATHER ACROSS NORTHERN MINNESOTA  *****

CITY           SKY/WX    TMP DP  RH WIND       PRES   REMARKS
FLAG ISLAND    CLOUDY    28  23  80 S18       30.14F WCI  16
WARROAD        CLOUDY    27  21  80 S8        30.17S WCI  18
ROSEAU         CLOUDY    27  21  80 S15       30.15F WCI  15
HALLOCK        CLOUDY    28  25  86 S18       30.12F WCI  16
THF RVR FALLS  CLOUDY    25  19  78 S15       30.16F WCI  13
HALSTAD          N/A     27  21  77 S16         N/A  WCI  15
FOSSTON        CLOUDY    23  19  86 S14       30.17F WCI  11
BAUDETTE       CLOUDY    27  20  75 S12       30.18S WCI  17
WASKISH        CLOUDY    25  19  80 S6        30.19F WCI  18
CROOKSTON      CLOUDY    28  21  74 S16       30.16F WCI  17
$$
  *****  WEATHER ACROSS CENTRAL AND WEST MINNESOTA  *****

CITY           SKY/WX    TMP DP  RH WIND       PRES   REMARKS
BEMIDJI        CLOUDY    24  19  81 S8        30.17F WCI  15
PARK RAPIDS    CLOUDY    25  16  68 S9        30.19F WCI  15
WADENA         CLOUDY    25  18  74 S9        30.19F WCI  15
DETROIT LAKES  CLOUDY    28  21  74 S12       30.17F WCI  18
MOORHEAD       CLOUDY    28  21  74 S14       30.17F WCI  17
FERGUS FALLS   MOSUNNY   28  19  69 S13       30.22F WCI  18
ELBOW LAKE     FAIR      28  21  72 E13       30.19F WCI  18
MORRIS MN      CLOUDY    28  21  74 SE14      30.18F WCI  17
STAPLES        CLOUDY    25  18  74 S5        30.21F WCI  19
WHEATON        MOSUNNY  N/A N/A N/A SE16      30.18F
$$
  *****  WEATHER ELSEWHERE ACROSS MINNESOTA  *****

CITY           SKY/WX    TMP DP  RH WIND       PRES   REMARKS
DULUTH         FLURRIES  27  23  85 W6        30.22F WCI  20
INTRNTL FALLS  CLOUDY    25  18  74 S6        30.20F WCI  18
ELY            CLOUDY    23  21  93 CALM      30.22F
CLOQUET        FLURRIES  28  23  80 CALM      30.23F
BRAINERD       CLOUDY    26  18  71 S10       30.23F WCI  16
HIBBING        CLOUDY    25  20  81 SE6       30.22F WCI  18
ALEXANDRIA     CLOUDY    26  19  74 S12       30.21F WCI  16
SAINT CLOUD    CLOUDY    27  19  72 S9        30.25F WCI  18
MINNEAPOLIS    CLOUDY    29  18  63 S3        30.29F
$$

  *****  WEATHER ACROSS SOUTH DAKOTA  *****

CITY           SKY/WX    TMP DP  RH WIND       PRES   REMARKS
SIOUX FALLS    NOT AVBL
BROOKINGS      MOSUNNY   32  28  85 S16       30.13F WCI  21
WATERTOWN      CLOUDY    29  26  89 S18       30.10F WCI  16
HURON          PTSUNNY   30  28  92 S14       30.12F WCI  19
SISSETON         N/A     30  25  81 S18       30.14F WCI  18
ABERDEEN       PTSUNNY   32  27  81 S18G24    30.09F WCI  20
MITCHELL       CLOUDY    31  29  92 S9        30.16R WCI  23
PIERRE         MOSUNNY   32  27  81 S14       29.97F WCI  22
MOBRIDGE       SUNNY     32  25  75 SE14      29.95F WCI  22
RAPID CITY     SUNNY     32  24  72 CALM      29.89R
$$

  *****  SOME WEATHER IN NEARBY STATES *****

CITY           SKY/WX    TMP DP  RH WIND       PRES   REMARKS
GLASGOW MT       N/A     35  26  69 W12       29.74S
GREAT FALLS MT MOSUNNY   36  24  62 SW15G24   29.86R
CHEYENNE WY    CLOUDY    30   5  34 W17G32    29.98R WCI  18
SCOTTSBLUFF NE SUNNY     39  10  30 W15G24    29.99F
OMAHA NE       CLOUDY    32  27  81 S12       30.31R WCI  23
DES MOINES IA  PTSUNNY   41  29  62 SE6       30.32S
DAVENPORT IA   CLOUDY    36  25  64 SE3       30.36S
CHICAGO IL     CLOUDY    32  22  66 W6        30.33S
EAU CLAIRE WI  CLOUDY    29  24  82 SW5       30.28F WCI  24
LA CROSSE WI   CLOUDY    33  23  66 CALM      30.30F
$$

  *****  SOME NATIONAL WEATHER *****

CITY           SKY/WX    TMP DP  RH WIND       PRES   REMARKS
LA GUARDIA NY  PTSUNNY   48  28  46 NW18G25   30.02S
RALEIGH NC     MOSUNNY   50  26  39 N5        30.28F
ATLANTA GA     CLOUDY    53  31  42 NE7       30.23F
NEW ORLEANS LA CLOUDY    61  50  67 E13G20    30.11F
OKLAHOMA CITY  LGT RAIN  45  42  89 E7        30.21F
ALBUQUERQUE NM PTSUNNY   36  28  73 N9        30.12S
SALT LAKE CITY CLOUDY    30  21  69 S10       30.30S WCI  21
LOS ANGELES CA SUNNY     58  18  21 NW7       30.14R
BOISE ID       CLOUDY    37  26  64 CALM      30.28R
SEATTLE WA     MOCLDY    45  41  86 S12       30.28F
$$

*** WEATHER ACROSS MANITOBA...SASKATCHEWAN AND ONTARIO ***
                ***ONTARIO***

CITY           SKY/WX    TMP DP  RH WIND       PRES   REMARKS
GERALDTON      FLURRIES  23  19  86 N3        30.24S
THUNDER BAY    PTSUNNY   30  23  74 W6        30.26F WCI  24
SIOUX LOOKOUT  FRZ DRZL  21  18  86 SW7       30.20F WCI  13
TORONTO        PTSUNNY   43  25  49 NW21G28   30.16F
BIG TROUT LK   CLOUDY    16  14  93 S5        30.22F WCI   9
PICKLE LAKE    FLURRIES  21  18  86 S6        30.20F WCI  14
DRYDEN         CLOUDY    23  19  86 S7        30.17F WCI  15
KENORA         FLURRIES  25  23  93 S9        30.14F WCI  15
$$
                *** MANITOBA***

CITY           SKY/WX    TMP DP  RH WIND       PRES   REMARKS
BRANDON        MOSUNNY   28  25  86 S12       29.92F WCI  18
DAUPHIN        PTSUNNY   30  25  80 E6        29.88F WCI  24
ISLAND LAKE    FLURRIES   9   5  85 S9        30.16F WCI  -5
PILOT MOUND      N/A     27  25  93 S23         N/A  WCI  12
THE PAS        CLOUDY    28  25  86 SE12G20   29.86F WCI  18
THOMPSON       FLURRIES  18  16  93 E5        30.05F WCI  11
WINNIPEG       FLURRIES  27  23  86 S21G29    30.08F WCI  13
LYNN LAKE      CLOUDY    23  23 100 SE7       29.89S WCI  15
CHURCHILL      LGT SNOW   5   3  92 S8        30.10F FOG     WCI  -8
GILLAM         LGT SNOW  12   9  85 S6        30.14F WCI   3
$$
                ***SASKATCHEWAN***

CITY           SKY/WX    TMP DP  RH WIND       PRES   REMARKS
ESTEVAN        CLOUDY    28  21  74 S14G21    29.78F WCI  17
KINDERSLEY     CLOUDY    21  21 100 NW8       29.68R FOG     WCI  12
LLOYDMINSTER   CLOUDY    23  21  93 W6        29.69S FOG     WCI  16
PRINCE ALBERT  CLOUDY    28  25  86 E6        29.71S WCI  22
REGINA         FLURRIES  25  25 100 SE12      29.67F WCI  14
YORKTON        SUNNY     27  23  86 SE15      29.75F WC1F1C2F2C3F3C4F4C5F5C6F6C7F7C8F8C9F9CaFaCbFbCcFcCdFdCe!


USA.gov is the U.S. government's official web portal to all federal, state and local government web resources and services.